Find Starlink 4544

NORAD ID: 53394 Int'l Des: 2022-097 Owner: SPXS Country: US Constellation: starlink operational
LEOCIRCULAR

リアルタイム位置

3D地球を読み込み中...

Starlink 4544について

説明を読み込み中...

次回通過

Passes for default location (London). Set your location on the main map for personalized predictions.

高度履歴

Loading altitude history...

軌道要素

1 53394U 22097G 26121.31523648 -.00000180 00000-0 67532-5 0 9996
2 53394 53.2165 237.4845 0001303 88.0403 272.0739 15.08840615206760
Epoch: May 1, 2026 • Age: 8 hours

現在のステータス

高度 556.2 km
速度 7.58 km/s
衛星直下点 -45.99°S, 97.65°E
打ち上げ日 Aug 10, 2022
運用期間 3.7 years
タイプ internet

技術仕様

分類 Payload
質量 297.00 kg
乾燥質量 275.00 kg
総質量 297.00 kg
長さ 0.20 m
直径 2.80 m
スパン 9.00 m
形状 Box + pan
製造者 SPXS
バスタイプ Starlink
フェーズステータス In Orbit
所有者/国 SPXS/US

Most Searched